Regional Weather Roundup
Issued by NWS State College, PA

Home | Current Version | Previous Version | Text Only | Print | Product List | Glossary Off
Versions: 1 2 3 4 5 6 7 8 9 10 11 12 13 14 15 16 17 18 19 20 21 22 23 24 25 26 27 28 29 30 31 32 33 34 35 36 37 38 39 40 41 42 43 44 45 46 47 48 49 50

809
ASUS41 KCTP 141403
RWRCTP

REGIONAL WEATHER ROUNDUP
NATIONAL WEATHER SERVICE STATE COLLEGE PA
900 AM EST SUN FEB 14 2016

Note: "fair" indicates few or no clouds below 12,000 feet with no
significant weather and/or obstructions to visibility.

* = STATION THAT DOES NOT REPORT PRECIPITATION /E.G. RAIN...SNOW...ETC/
    THUNDER OR FOG.

PAZ002>004-007>009-013>016-020>023-029>032-141500-
WESTERN PENNSYLVANIA

CITY           SKY/WX    TMP DP  RH WIND       PRES   REMARKS
ERIE           LGT SNOW  10   3  73 SE5       30.48R WCI   2
MEADVILLE      PTSUNNY    6   2  83 E3        30.40R
FRANKLIN*      SUNNY      1  -4  78 CALM      30.41R
NEW CASTLE     FAIR      -1  -5  82 CALM      30.45S
BEAVER COUNTY  NOT AVBL
BUTLER*        CLOUDY     1   0  92 CALM      30.46R
PITTSBURGH INT CLOUDY     3   1  91 CALM      30.44R
PITTSBURGH     SUNNY      6   2  83 SE3       30.43S
INDIANA*       MOSUNNY    1   0  92 CALM      30.45F
LATROBE        SUNNY      0  -2  92 CALM      30.46S
WASHINGTON CO* CLOUDY     3   1  92 CALM      30.44R
$$

PAZ004>006-010>012-017>019-024>028-033>037-041-042-045-046-049>053-141500-
CENTRAL PENNSYLVANIA

CITY           SKY/WX    TMP DP  RH WIND       PRES   REMARKS
BRADFORD       PTSUNNY   -3  -8  79 CALM      30.31S
DUBOIS         SUNNY      0  -3  87 SW3       30.36R
CLEARFIELD     SUNNY      4  -2  76 CALM      30.40R
JOHNSTOWN      MOSUNNY    2  -5  72 NW7       30.30S HAZE    WCI -11
ALTOONA        SUNNY      5  -2  72 NW10      30.41R WCI -10
STATE COLLEGE  SUNNY      5  -4  66 CALM      30.44R
WILLIAMSPORT   SUNNY      2 -12  52 NW12      30.54R WCI -15
SELINSGROVE    SUNNY      5  -8  55 N7        30.55R WCI  -7
FT INDIANTOWN  SUNNY      7  -8  48 VRB2      30.52R
CAPITAL CITY   MOSUNNY   12  -6  44 NW12      30.53R WCI  -2
HARRISBURG     MOSUNNY   11  -4  51 NW10      30.53R WCI  -3
YORK           SUNNY      9  -5  53 NW6       30.52R WCI  -1
$$

PAZ038>040-043-044-047-048-054-055-060>062-067>071-141500-
EASTERN PENNSYLVANIA

CITY           SKY/WX    TMP DP  RH WIND       PRES   REMARKS
SCRANTON       SUNNY     -5 -15  62 N9        30.47R WCI -22
MOUNT POCONO   PTSUNNY   -9 -19  61 NW15G25   30.30R WCI -31
ALLENTOWN      SUNNY      4 -11  50 N12       30.52R WCI -12
QUAKERTOWN*    SUNNY      5 -11  47 N3        30.51R
READING        SUNNY      6  -9  50 NW16G23   30.53R WCI -12
LANCASTER      SUNNY      8  -5  55 NE6       30.53R WCI  -2
COATESVILLE    SUNNY      7  -8  51 N9        30.51R WCI  -7
POTTSTOWN      SUNNY      6 -10  47 N12G20    30.54R WCI  -9
BLUE BELL        N/A      7  -9  47 NW6       30.52R WCI  -3
DOYLESTOWN     SUNNY      4 -12  48 NW12      30.51R WCI -12
WILLOW GROVE   NOT AVBL
NORTH PHILA    SUNNY      9 -10  42 N15       30.57R WCI  -8
PHILADELPHIA   MOSUNNY   10 -12  36 NW16G24   30.56R WCI  -7
$$




USA.gov is the U.S. government's official web portal to all federal, state and local government web resources and services.